Location: Caltech
(34.1382°N, 118.1253°W)
Time: 10:31:06
(UTC-07:00)

Uribyol 2 - Visible Passes

Search period start: 30 March 2015 00:00
Search period end: 09 April 2015 00:00
Orbit: 782 x 798 km, 98.7° (Epoch: 29 March)

Date Brightness Start Highest point End Pass type
(mag) Time Alt. Az. Time Alt. Az. Time Alt. Az.
30 Mar ? 04:04:59 10° N 04:06:04 15° NNW 04:06:04 15° NNW visible
31 Mar ? 03:35:02 10° N 03:36:20 18° N 03:36:20 18° N visible
01 Apr ? 03:05:30 10° NNE 03:06:35 17° NNE 03:06:35 17° NNE visible
02 Apr ? 02:36:24 10° NNE 02:36:49 12° NE 02:36:49 12° NE visible
02 Apr ? 04:16:16 10° NNW 04:17:33 16° NNW 04:17:33 16° NNW visible
03 Apr ? 03:46:07 10° N 03:47:48 20° N 03:47:48 20° N visible
04 Apr ? 03:16:25 10° NNE 03:18:02 21° NNE 03:18:02 21° NNE visible
05 Apr ? 02:47:08 10° NNE 02:48:17 16° NNE 02:48:17 16° NNE visible
05 Apr ? 04:27:38 10° NNW 04:29:01 15° NW 04:29:01 15° NW visible
06 Apr ? 02:18:27 10° NE 02:18:32 10° NE 02:18:32 10° NE visible
06 Apr ? 03:57:14 10° N 03:59:16 22° NNW 03:59:16 22° NNW visible
07 Apr ? 03:27:23 10° N 03:29:30 25° N 03:29:30 25° N visible
08 Apr ? 02:57:57 10° NNE 02:59:45 22° NNE 02:59:45 22° NNE visible
08 Apr ? 04:39:11 10° NNW 04:40:28 13° NW 04:40:28 13° NW visible
